Погода в Буйском

Россия / Кировская область     57°04′51″N   49°42′35″E
темп.,
°C
ветер,
м/с
пор.,
м/с
влажн.,
%
обл.,
%
осадки,
мм/ч
давл.,
гПа
погр.,
м
25 февраля, чт
чт2500:00−25зсз229671 0.0 103420
03:00−26юз229754 0.0 103319
06:00−26ю339855 0.0 103132
09:00−23ююв479577 0.0 1028229
12:00−19ююв61091100 0.0 1025344
15:00−18ююв71196100 0.3 1022433
18:00−18ююв61195100 0.6 1020544
21:00−19юв5109499 0.8 1019445
26 февраля, пт
пт2600:00−19юв51095100 0.1 1019410
03:00−19юв5996100 0.2 1019396
06:00−20юв499697 0.1 1017268
09:00−20юв599591 0.1 1018344
12:00−17юв61093100 0.0 1016427
15:00−16юв71293100 0.1 1014467
18:00−16юв81492100 0.1 1010564
21:00−15юв91694100 0.5 1006553
27 февраля, сб
сб2700:00−15юв91495100 4.1 1001611
03:00−14юв71395100 7.2 1000533
06:00−14вюв61194100 0.6 998403
09:00−13в61094100 0.8 998425
12:00−11в6993100 0.3 998432
15:00−10всв5894100 0.6 1000484
18:00−12св599595 0.3 1001320
21:00−13св5109592 0.4 1003294
28 февраля, вс
вс2800:00−14ссв599592 0.1 1004268
03:00−15ссв589595 0.4 1006324
06:00−17ссв589599 0.3 1008305
09:00−19ссв589493 0.3 1010262
12:00−17с589161 0.0 1011387
15:00−16с599074 0.0 1013487
18:00−19с499594 0.0 1015169
21:00−21с479773 0.0 101890
1 марта, пн
пн100:00−22с34980 0.0 101955
03:00−22ссз34970 0.0 102053
06:00−23ссз34970 0.0 102132
09:00−19ссз35950 0.0 1022157
12:00−14сз238821 0.0 1022247
15:00−13зсз359221 0.0 1021251
18:00−16зюз349347 0.0 101982
21:00−14юз5109369 0.0 1018238